Location: Gebenbach
(49.5378°N, 11.8735°E)
Time: 03:24:33
(UTC+00:00)

CZ-2C R/B - Pass Details

Date: 29 October 2020
Orbit: 703 x 909 km, 98.1° (Epoch: 27 November)

Event Time Altitude Azimuth Distance (km) Brightness Sun altitude
Rises 17:35:36 0° 159° (SSE) 3,519 6.2 -16.8°
Reaches altitude 10° 17:38:02 10° 158° (SSE) 2,572 5.5 -17.2°
Maximum altitude 17:43:48 78° 73° (ENE) 906 3.2 -18.1°
Drops below altitude 10° 17:49:23 10° 349° (NNW) 2,493 5.8 -19.0°
Sets 17:51:42 0° 348° (NNW) 3,404 6.5 -19.4°
